Location: Medlow Airstrip Trail, Medlow Bath NSW 2780, Australia
(33.6682°S, 150.3233°E)
Time: 23:56:34
(UTC+11:00)

Hubble Space Telescope - Visible Passes

Search period start: 17 January 2021 00:00
Search period end: 27 January 2021 00:00
Orbit: 536 x 539 km, 28.5° (Epoch: 16 January)

Date Brightness Start Highest point End Pass type
(mag) Time Alt. Az. Time Alt. Az. Time Alt. Az.
22 Jan 2.4 05:34:27 10° NW 05:37:44 23° NNE 05:41:01 10° ENE visible
23 Jan 2.2 05:23:41 12° NW 05:26:50 26° NNE 05:30:19 10° ENE visible
24 Jan 1.9 05:13:23 16° NW 05:15:56 29° NNE 05:19:35 10° ENE visible
25 Jan 1.7 05:03:05 21° NW 05:05:04 33° N 05:08:48 10° ENE visible
26 Jan 1.6 04:52:48 28° NNW 04:54:11 36° N 04:58:00 10° ENE visible
